SCP
0 0 0 0 0 0 0 0 0 0 0 0 0 0 0 0 0 0 0 0 0 0 0 0 0 0 0 0 0 0 0 0 0 0 0 0 0 0 0 0 0 0 0 0 0
0 0 0 0 0 0 0 0 0 0 0 0 0 0 0 0 0 0 0 0 0 0 0 0 0 0 0 0 0 0 0 0 0 0 0 0 0 0 0 0 0 0 0 0 0
0 0 0 0 0 0 0 0 0 0 0 0 0 0 0 0 0 0 0 0 0 0 0 0 0 0 0 0 0 0 0 0 0 0 0 0 0 0 0 0 -0 0 0 0 0
0 0 0 0 0 0 0 0 0 0 0 0 0 0 0 0 0 0 0 0 0 0 0 0 0 0 0 0 0 0 0 0 0 0 0 0 0 0 0 0 0 0 0 0 0
0 0 0 0 0 0 0 0 0 0 0 0 0 0 0 0 0 0 0 0 0 0 0 0 0 0 0 0 0 0 0 0 0 0 0 0 0 0 0 0 0 0 0 0 0
0 0 0 0 0 0 0 0 0 0 0 0 0 0 0 0 0 0 0 0 0 0 0 0 0 0 0 0 0 0 0 0 0 0 0 0 0 0 0 0 0 0 0 0 0
0 0 0 0 0 0 0 0 0 0 0 0 0 0 0 0 0 0 0 0 0 0 0 0 0 0 0 0 0 0 0 0 0 0 0 0 0 0 0 0 0 0 0 0 0
0 0 0 0 0 0 0 0 0 0 0 0 0 0 0 0 0 0 0 0 0 0 0 0 0 0 0 0 0 0 0 0 0 0 0 0 0 0 0 0 0 0 0 0 0
0 0 0 0 0 0 0 0 0 0 0 0 0 0 0 0 0 0 0 0 0 0 0 0 0 0 0 0 0 0 0 0 0 0 0 0 0 0 0 0 0 0 0 0 0
0 0 0 0 0 0 0 0 0 0 0 0 0 0 0 0 0 0 0 0 0 0 0 0 0 0 0 0 0 0 0 0 0 0 0 0 0 0 0 0 0 0 0 0 0
0 0 0 0 0 0 0 0 0 0 0 0 0 0 0 0 0 0 0 0 0 0 0 0 0 0 0 0 0 0 0 0 0 0 0 0 0 0 0 0 0 0 0 0 0
0 0 0 0 0 0 0 0 0 0 0 0 0 0 0 0 0 0 0 0 0 0 0 0 0 0 0 0 0 0 0 0 0 0 0 0 0 0 0 0 0 0 0 0 0
0 0 0 0 0 0 0 0 0 0 0 0 0 0 0 0 0 0 0 0 0 0 0 0 0 0 0 0 0 0 0 0 0 0 0 0 0 0 0 0 0 0 0 0 0
0 0 0 0 0 0 0 0 0 0 0 0 0 0 0 0 0 0 0 0 0 0 0 0 0 0 0 0 0 0 0 0 0 0 0 0 0 0 0 0 0 0 0 0 0
0 0 0 0 0 0 0 0 0 0 0 0 0 0 0 0 0 0 0 0 0 0 0 0 0 0 0 0 0 0 0 0 0 0 0 0 0 0 0 0 0 0 0 0 0
0 0 0 0 0 0 0 0 0 0 0 0 0 0 0 0 0 0 0 0 0 0 0 0 0 0 0 0 0 0 0 0 0 0 0 0 0 0 0 0 0 0 0 0 0
0 0 0 0 0 0 0 0 0 0 0 0 0 0 0 0 0 0 0 0 0 0 0 0 0 0 0 0 0 0 0 0 0 0 0 0 0 0 0 0 0 0 0 0 0
0 0 0 0 0 0 0 0 0 0 0 0 0 0 0 0 0 0 0 0 0 0 0 0 0 0 0 0 0 0 0 0 0 0 0 0 0 0 0 0 0 0 0 0 0
0 0 0 0 0 0 0 0 0 0 0 0 0 0 0 0 0 0 0 0 0 0 0 0 0 0 0 0 0 0 0 0 0 0 0 0 0 0 0 0 0 0 0 0 0
0 0 0 0 0 0 0 0 0 0 0 0 0 0 0 0 0 0 0 0 0 0 0 0 0 0 0 0 0 0 0 0 0 0 0 0 0 0 0 0 0 0 0 0 0
0 0 0 0 0 0 0 0 0 0 0 0 0 0 0 0 0 0 0 0 0 0 0 0 0 0 0 0 0 0 0 0 0 0 0 0 0 0 0 0 0 0 0 0 0
0 0 0 0 0 0 0 0 0 0 0 0 0 0 0 0 0 0 0 0 0 0 0 0 0 0 0 0 0 0 0 0 0 0 0 0 0 0 0 0 0 0 0 0 0
0 0 0 0 0 0 0 0 0 0 0 0 0 0 0 0 0 0 0 0 0 0 0 0 0 0 0 0 0 0 0 0 0 0 0 0 0 0 0 0 0 0 0 0 0
0 0 0 0 0 0 0 0 0 0 0 0 0 0 0 0 0 0 0 0 0 0 0 0 0 0 0 0 0 0 0 0 0 0 0 0 0 0 0 0 0 0 0 0 0
0 0 0 0 0 0 0 0 0 0 0 0 0 0 0 0 0 0 0 0 0 0 0 0 0 0 0 0 0 0 0 0 0 0 0 0 0 0 0 0 0 0 0 0 0
0 0 0 0 0 0 0 0 0 0 0 0 0 0 0 0 0 0 0 0 0 0 0 0 0 0 0 0 0 0 0 0 0 0 0 0 0 0 0 0 0 0 0 0 0
0 0 0 0 0 0 0 0 0 0 0 0 0 0 0 0 0 0 0 0 0 0 0 0 0 0 0 0 0 0 0 0 0 0 0 0 0 0 0 0 0 0 0 0 0
Wind_Speed_500mb
13 13 13 13 13 13 13 13 13 14 15 17 18 19 21 23 25 27 27 11 7 10 9 8 7 3 2 5 7 4 9 3 7 10 5 4 10 2 14 10 4 6 9 20 22
19 18 18 18 17 16 16 16 17 18 19 21 22 23 24 25 27 29 15 10 8 9 9 8 4 2 4 4 4 8 7 12 6 7 3 8 2 14 9 14 8 13 16 21 16
23 22 22 22 21 20 20 20 21 21 22 24 24 24 24 24 27 5 3 4 6 9 10 6 3 2 2 1 1 5 8 5 4 11 7 8 10 4 4 11 5 9 25 16 12
28 26 26 25 24 24 24 24 25 25 24 24 25 25 23 18 7 4 8 9 9 10 8 7 5 2 3 1 3 1 9 9 6 4 7 7 12 10 13 7 23 20 4 6 10
32 30 30 29 28 27 28 28 29 27 26 25 26 25 23 13 16 18 15 14 13 14 15 12 11 9 5 6 4 7 6 9 16 21 22 23 18 15 38 26 4 4 3 7 14
36 34 34 34 33 32 30 30 30 29 28 28 27 24 22 14 20 21 21 22 22 20 20 16 7 11 5 4 6 2 8 20 21 27 19 9 4 2 14 13 8 3 8 12 13
41 40 38 38 38 35 32 31 30 30 31 29 27 24 28 37 24 19 21 22 20 19 18 19 13 12 8 1 2 4 9 13 14 13 10 10 5 12 3 7 14 14 14 14 18
45 45 44 40 37 36 34 33 33 32 31 30 27 23 20 26 27 30 32 22 19 18 19 14 16 11 5 4 9 7 7 7 6 1 2 9 15 0 16 26 16 13 10 10 12
50 46 45 42 39 37 37 33 32 31 31 30 26 18 18 22 23 28 24 22 22 21 17 15 16 8 7 10 8 10 6 9 15 3 3 4 11 3 36 26 17 14 12 11 11
49 47 45 43 41 39 33 30 29 31 31 28 29 11 28 15 16 21 25 21 15 21 16 13 8 6 5 8 11 12 9 9 11 2 6 2 14 9 32 19 22 20 19 21 23
48 46 44 40 37 36 29 25 22 16 32 25 12 13 7 20 19 21 27 28 18 15 10 7 7 17 25 20 5 8 8 10 6 6 1 13 13 7 16 24 21 22 25 30 34
48 45 42 37 36 36 31 18 16 9 18 33 50 42 28 21 16 27 34 24 16 11 13 6 14 19 8 9 9 5 5 10 10 4 11 9 12 5 12 9 14 23 26 32 35
50 46 41 38 39 41 41 37 29 22 14 20 47 48 51 45 27 37 45 21 10 12 15 15 10 13 14 9 11 9 12 9 13 6 3 7 12 8 7 19 21 21 26 29 32
55 50 45 41 40 50 47 29 26 9 8 13 15 16 27 30 14 35 49 22 9 21 14 12 9 11 9 11 15 10 15 10 8 7 8 2 9 6 9 9 10 20 27 29 29
63 57 54 56 31 35 39 28 19 11 12 5 9 13 26 24 22 10 38 16 15 14 14 13 13 11 11 11 15 12 9 11 5 6 3 4 1 11 11 9 11 21 26 30 32
79 66 61 59 60 45 28 26 31 6 25 7 10 12 12 7 6 13 12 10 11 10 2 9 3 11 12 5 9 14 12 12 9 6 2 12 12 8 11 9 12 28 32 31 32
52 75 75 76 76 62 33 47 8 13 3 12 11 12 9 12 8 10 14 12 13 11 13 2 8 5 8 12 5 7 11 2 5 1 11 4 3 14 5 4 18 37 50 40 34
60 64 84 86 78 69 56 14 20 19 21 7 8 9 16 14 10 13 14 14 12 4 7 14 7 18 11 9 14 13 12 10 13 7 7 3 11 11 5 9 17 49 53 43 40
56 55 90 99 92 88 53 26 25 15 18 20 6 8 9 10 11 10 16 14 19 22 12 11 6 4 6 6 5 9 8 7 13 5 4 8 10 3 1 4 20 44 51 48 44
61 60 73 86 99 88 37 31 19 14 14 12 30 17 23 17 15 16 22 13 14 23 11 13 6 1 5 9 9 8 13 7 4 4 8 9 9 10 12 16 13 25 51 52 47
79 29 39 59 88 51 25 26 26 20 22 23 31 20 15 18 19 13 18 6 14 15 15 12 6 4 9 11 17 6 6 7 8 8 10 4 10 11 15 20 28 39 58 57 55
59 9 33 63 24 6 31 31 29 28 27 15 6 10 21 25 20 17 25 13 28 30 23 15 10 8 12 5 5 1 12 13 9 11 5 3 15 9 8 30 47 50 60 55 52
28 22 41 64 15 23 4 7 16 15 18 15 14 11 7 18 12 12 16 6 25 18 21 18 4 4 11 3 5 9 10 7 9 7 15 9 13 6 7 18 39 41 51 53 47
18 6 12 34 12 27 14 7 9 5 6 8 9 6 7 4 3 18 11 4 8 11 9 18 9 14 19 11 11 11 12 11 12 10 10 30 24 5 7 12 21 39 48 46 37
14 6 13 8 13 20 24 14 10 9 3 8 4 12 13 10 3 9 6 7 6 9 7 10 15 9 5 6 5 7 13 27 25 33 22 25 24 14 19 18 32 41 47 48 35
7 8 6 6 39 30 25 21 20 10 12 7 8 17 19 11 13 14 15 5 9 3 7 3 3 7 5 3 7 6 16 12 27 5 6 3 25 14 26 29 21 33 51 59 40
12 7 6 3 5 22 21 34 39 33 26 23 26 6 24 36 18 13 21 15 19 19 14 11 13 7 10 6 9 15 24 25 12 13 17 23 25 9 11 23 38 40 40 43 31
Wind_Direction_500mb
269 271 275 276 279 283 289 294 297 300 302 305 307 311 311 312 310 309 310 288 247 222 223 222 216 235 359 39 41 82 62 173 227 155 244 358 16 309 324 277 307 319 345 317 307
267 266 266 267 269 272 278 284 288 292 296 298 301 305 308 311 312 306 290 270 236 210 186 176 170 84 62 53 24 76 104 220 212 208 253 323 342 323 332 318 289 326 330 325 300
260 261 263 265 270 274 277 280 283 287 291 293 296 301 307 316 321 303 211 162 151 153 151 158 169 341 74 75 39 128 183 214 280 241 288 305 305 200 286 302 324 355 326 351 23
254 255 258 262 266 271 274 277 279 281 283 287 293 298 303 309 304 264 214 205 198 202 221 220 220 151 86 231 190 41 246 223 272 244 295 282 298 278 221 261 324 306 282 4 7
254 255 257 260 264 270 274 276 277 280 284 289 292 295 299 277 256 261 244 234 231 241 241 236 214 176 183 198 174 179 252 239 262 275 279 276 263 268 274 296 98 98 161 6 5
259 257 261 264 267 269 270 272 276 281 285 289 291 291 287 257 262 259 248 246 251 247 234 223 228 208 182 203 180 275 287 288 289 278 270 237 272 246 78 103 91 53 15 2 2
259 261 262 267 270 270 269 269 272 278 282 285 286 287 275 265 263 259 257 249 241 234 226 219 215 189 171 173 271 328 334 324 264 272 218 177 247 219 97 32 53 33 20 5 359
257 262 263 264 265 266 266 268 272 276 280 283 285 284 263 262 254 249 245 235 223 216 217 214 204 205 206 143 21 31 51 352 315 135 323 161 259 159 43 1 42 37 28 17 8
258 257 260 261 261 261 263 265 267 272 279 281 280 266 263 254 243 236 226 224 217 210 201 186 170 158 139 98 7 5 234 210 315 35 140 131 268 293 339 2 76 61 51 44 35
257 257 257 258 258 258 260 263 268 274 273 271 255 265 239 234 222 214 209 202 186 184 167 173 153 89 52 114 220 200 213 239 237 307 39 340 268 322 28 65 80 76 73 66 60
257 257 256 254 253 252 254 266 271 269 239 219 236 206 232 217 202 199 191 177 158 168 159 157 128 206 199 200 159 145 180 214 247 224 193 243 249 339 63 83 89 93 92 84 78
254 256 254 248 243 245 242 227 234 281 295 261 247 245 242 209 193 194 183 177 176 178 123 71 223 228 148 160 175 156 168 250 284 284 184 313 281 76 48 64 108 114 102 99 98
253 251 249 242 240 241 239 235 246 283 268 256 240 239 231 223 217 199 190 191 169 149 192 180 208 146 171 164 166 206 196 200 221 346 345 341 286 182 58 103 113 118 120 117 109
250 246 241 234 239 240 241 237 237 262 279 253 215 219 199 198 234 212 199 186 186 189 165 233 251 184 168 196 153 218 204 173 177 122 225 59 279 243 172 149 140 148 145 134 121
246 242 234 230 225 226 237 225 201 181 280 199 158 166 162 181 142 171 181 190 166 169 140 232 179 186 190 191 165 216 118 150 130 127 56 251 293 256 140 201 197 187 167 150 138
246 233 231 227 227 229 215 187 166 111 239 219 138 152 132 183 145 120 159 160 146 128 222 228 211 173 204 104 153 139 79 52 55 92 282 229 184 254 196 195 164 181 182 168 151
262 233 227 226 220 213 194 167 176 205 306 193 186 168 169 163 169 158 164 173 164 139 207 169 212 189 164 88 61 104 111 299 341 24 230 5 188 250 176 149 180 180 184 176 164
254 251 228 229 223 217 191 195 209 211 214 92 127 119 178 159 210 167 137 187 245 159 128 167 201 167 191 192 170 177 163 156 223 210 261 343 233 260 261 296 236 193 178 174 173
249 256 243 228 220 216 188 207 211 182 176 140 93 136 226 214 157 139 192 198 201 187 179 154 259 98 90 126 135 182 179 157 103 39 21 234 282 275 44 46 139 162 174 182 181
241 247 244 234 215 202 200 219 228 203 137 154 194 175 183 192 162 187 177 195 200 184 207 203 117 63 144 109 47 151 158 85 10 178 257 279 273 238 222 202 169 168 187 189 189
236 220 226 229 218 205 216 219 222 219 181 183 208 185 191 172 183 203 200 221 196 169 148 151 125 219 136 207 170 135 174 68 123 149 175 258 253 210 219 177 182 198 196 194 196
221 189 188 189 203 274 223 213 198 194 213 224 220 164 176 171 173 205 200 225 173 145 164 193 140 167 195 139 91 164 194 161 164 216 253 146 257 3 252 179 185 198 200 202 206
176 178 181 183 209 226 323 233 211 165 190 188 198 223 175 179 167 190 189 169 165 159 163 175 198 83 354 32 39 192 205 161 92 79 194 170 259 34 70 164 201 203 206 207 210
186 167 162 203 188 204 198 210 208 187 173 164 166 92 123 210 337 170 179 153 170 176 193 140 144 171 211 187 137 178 195 189 163 190 179 229 253 171 210 211 204 212 215 209 210
210 210 168 186 194 184 169 176 171 198 214 197 194 178 173 162 173 181 161 146 81 138 78 169 192 153 86 101 119 194 188 193 199 222 210 246 228 183 207 207 214 218 211 205 229
175 148 223 294 190 183 164 191 183 179 181 234 235 205 196 192 178 184 147 231 171 95 157 343 109 80 334 89 79 276 235 172 219 187 252 253 257 181 209 218 223 227 221 220 251
211 190 60 297 242 186 202 189 204 199 195 196 213 186 209 221 197 115 151 150 161 156 168 147 129 114 231 112 101 273 222 195 175 188 171 213 238 181 201 211 225 234 233 242 251
Wind_Speed_850mb
13 13 13 13 13 13 13 13 13 14 15 17 18 19 21 23 25 27 27 11 7 10 9 8 7 3 2 5 7 4 9 3 7 10 5 4 10 2 14 10 4 6 9 20 22
19 18 18 18 17 16 16 16 17 18 19 21 22 23 24 25 27 29 15 10 8 9 9 8 4 2 4 4 4 8 7 12 6 7 3 8 2 14 9 14 8 13 16 21 16
23 22 22 22 21 20 20 20 21 21 22 24 24 24 24 24 27 5 3 4 6 9 10 6 3 2 2 1 1 5 8 5 4 11 7 8 10 4 4 11 5 9 25 16 12
28 26 26 25 24 24 24 24 25 25 24 24 25 25 23 18 7 4 8 9 9 10 8 7 5 2 3 1 3 1 9 9 6 4 7 7 12 10 13 7 23 20 4 6 10
32 30 30 29 28 27 28 28 29 27 26 25 26 25 23 13 16 18 15 14 13 14 15 12 11 9 5 6 4 7 6 9 16 21 22 23 18 15 38 26 4 4 3 7 14
36 34 34 34 33 32 30 30 30 29 28 28 27 24 22 14 20 21 21 22 22 20 20 16 7 11 5 4 6 2 8 20 21 27 19 9 4 2 14 13 8 3 8 12 13
41 40 38 38 38 35 32 31 30 30 31 29 27 24 28 37 24 19 21 22 20 19 18 19 13 12 8 1 2 4 9 13 14 13 10 10 5 12 3 7 14 14 14 14 18
45 45 44 40 37 36 34 33 33 32 31 30 27 23 20 26 27 30 32 22 19 18 19 14 16 11 5 4 9 7 7 7 6 1 2 9 15 0 16 26 16 13 10 10 12
50 46 45 42 39 37 37 33 32 31 31 30 26 18 18 22 23 28 24 22 22 21 17 15 16 8 7 10 8 10 6 9 15 3 3 4 11 3 36 26 17 14 12 11 11
49 47 45 43 41 39 33 30 29 31 31 28 29 11 28 15 16 21 25 21 15 21 16 13 8 6 5 8 11 12 9 9 11 2 6 2 14 9 32 19 22 20 19 21 23
48 46 44 40 37 36 29 25 22 16 32 25 12 13 7 20 19 21 27 28 18 15 10 7 7 17 25 20 5 8 8 10 6 6 1 13 13 7 16 24 21 22 25 30 34
48 45 42 37 36 36 31 18 16 9 18 33 50 42 28 21 16 27 34 24 16 11 13 6 14 19 8 9 9 5 5 10 10 4 11 9 12 5 12 9 14 23 26 32 35
50 46 41 38 39 41 41 37 29 22 14 20 47 48 51 45 27 37 45 21 10 12 15 15 10 13 14 9 11 9 12 9 13 6 3 7 12 8 7 19 21 21 26 29 32
55 50 45 41 40 50 47 29 26 9 8 13 15 16 27 30 14 35 49 22 9 21 14 12 9 11 9 11 15 10 15 10 8 7 8 2 9 6 9 9 10 20 27 29 29
63 57 54 56 31 35 39 28 19 11 12 5 9 13 26 24 22 10 38 16 15 14 14 13 13 11 11 11 15 12 9 11 5 6 3 4 1 11 11 9 11 21 26 30 32
79 66 61 59 60 45 28 26 31 6 25 7 10 12 12 7 6 13 12 10 11 10 2 9 3 11 12 5 9 14 12 12 9 6 2 12 12 8 11 9 12 28 32 31 32
52 75 75 76 76 62 33 47 8 13 3 12 11 12 9 12 8 10 14 12 13 11 13 2 8 5 8 12 5 7 11 2 5 1 11 4 3 14 5 4 18 37 50 40 34
60 64 84 86 78 69 56 14 20 19 21 7 8 9 16 14 10 13 14 14 12 4 7 14 7 18 11 9 14 13 12 10 13 7 7 3 11 11 5 9 17 49 53 43 40
56 55 90 99 92 88 53 26 25 15 18 20 6 8 9 10 11 10 16 14 19 22 12 11 6 4 6 6 5 9 8 7 13 5 4 8 10 3 1 4 20 44 51 48 44
61 60 73 86 99 88 37 31 19 14 14 12 30 17 23 17 15 16 22 13 14 23 11 13 6 1 5 9 9 8 13 7 4 4 8 9 9 10 12 16 13 25 51 52 47
79 29 39 59 88 51 25 26 26 20 22 23 31 20 15 18 19 13 18 6 14 15 15 12 6 4 9 11 17 6 6 7 8 8 10 4 10 11 15 20 28 39 58 57 55
59 9 33 63 24 6 31 31 29 28 27 15 6 10 21 25 20 17 25 13 28 30 23 15 10 8 12 5 5 1 12 13 9 11 5 3 15 9 8 30 47 50 60 55 52
28 22 41 64 15 23 4 7 16 15 18 15 14 11 7 18 12 12 16 6 25 18 21 18 4 4 11 3 5 9 10 7 9 7 15 9 13 6 7 18 39 41 51 53 47
18 6 12 34 12 27 14 7 9 5 6 8 9 6 7 4 3 18 11 4 8 11 9 18 9 14 19 11 11 11 12 11 12 10 10 30 24 5 7 12 21 39 48 46 37
14 6 13 8 13 20 24 14 10 9 3 8 4 12 13 10 3 9 6 7 6 9 7 10 15 9 5 6 5 7 13 27 25 33 22 25 24 14 19 18 32 41 47 48 35
7 8 6 6 39 30 25 21 20 10 12 7 8 17 19 11 13 14 15 5 9 3 7 3 3 7 5 3 7 6 16 12 27 5 6 3 25 14 26 29 21 33 51 59 40
12 7 6 3 5 22 21 34 39 33 26 23 26 6 24 36 18 13 21 15 19 19 14 11 13 7 10 6 9 15 24 25 12 13 17 23 25 9 11 23 38 40 40 43 31
Wind_Direction_850mb
269 271 275 276 279 283 289 294 297 300 302 305 307 311 311 312 310 309 310 288 247 222 223 222 216 235 359 39 41 82 62 173 227 155 244 358 16 309 324 277 307 319 345 317 307
267 266 266 267 269 272 278 284 288 292 296 298 301 305 308 311 312 306 290 270 236 210 186 176 170 84 62 53 24 76 104 220 212 208 253 323 342 323 332 318 289 326 330 325 300
260 261 263 265 270 274 277 280 283 287 291 293 296 301 307 316 321 303 211 162 151 153 151 158 169 341 74 75 39 128 183 214 280 241 288 305 305 200 286 302 324 355 326 351 23
254 255 258 262 266 271 274 277 279 281 283 287 293 298 303 309 304 264 214 205 198 202 221 220 220 151 86 231 190 41 246 223 272 244 295 282 298 278 221 261 324 306 282 4 7
254 255 257 260 264 270 274 276 277 280 284 289 292 295 299 277 256 261 244 234 231 241 241 236 214 176 183 198 174 179 252 239 262 275 279 276 263 268 274 296 98 98 161 6 5
259 257 261 264 267 269 270 272 276 281 285 289 291 291 287 257 262 259 248 246 251 247 234 223 228 208 182 203 180 275 287 288 289 278 270 237 272 246 78 103 91 53 15 2 2
259 261 262 267 270 270 269 269 272 278 282 285 286 287 275 265 263 259 257 249 241 234 226 219 215 189 171 173 271 328 334 324 264 272 218 177 247 219 97 32 53 33 20 5 359
257 262 263 264 265 266 266 268 272 276 280 283 285 284 263 262 254 249 245 235 223 216 217 214 204 205 206 143 21 31 51 352 315 135 323 161 259 159 43 1 42 37 28 17 8
258 257 260 261 261 261 263 265 267 272 279 281 280 266 263 254 243 236 226 224 217 210 201 186 170 158 139 98 7 5 234 210 315 35 140 131 268 293 339 2 76 61 51 44 35
257 257 257 258 258 258 260 263 268 274 273 271 255 265 239 234 222 214 209 202 186 184 167 173 153 89 52 114 220 200 213 239 237 307 39 340 268 322 28 65 80 76 73 66 60
257 257 256 254 253 252 254 266 271 269 239 219 236 206 232 217 202 199 191 177 158 168 159 157 128 206 199 200 159 145 180 214 247 224 193 243 249 339 63 83 89 93 92 84 78
254 256 254 248 243 245 242 227 234 281 295 261 247 245 242 209 193 194 183 177 176 178 123 71 223 228 148 160 175 156 168 250 284 284 184 313 281 76 48 64 108 114 102 99 98
253 251 249 242 240 241 239 235 246 283 268 256 240 239 231 223 217 199 190 191 169 149 192 180 208 146 171 164 166 206 196 200 221 346 345 341 286 182 58 103 113 118 120 117 109
250 246 241 234 239 240 241 237 237 262 279 253 215 219 199 198 234 212 199 186 186 189 165 233 251 184 168 196 153 218 204 173 177 122 225 59 279 243 172 149 140 148 145 134 121
246 242 234 230 225 226 237 225 201 181 280 199 158 166 162 181 142 171 181 190 166 169 140 232 179 186 190 191 165 216 118 150 130 127 56 251 293 256 140 201 197 187 167 150 138
246 233 231 227 227 229 215 187 166 111 239 219 138 152 132 183 145 120 159 160 146 128 222 228 211 173 204 104 153 139 79 52 55 92 282 229 184 254 196 195 164 181 182 168 151
262 233 227 226 220 213 194 167 176 205 306 193 186 168 169 163 169 158 164 173 164 139 207 169 212 189 164 88 61 104 111 299 341 24 230 5 188 250 176 149 180 180 184 176 164
254 251 228 229 223 217 191 195 209 211 214 92 127 119 178 159 210 167 137 187 245 159 128 167 201 167 191 192 170 177 163 156 223 210 261 343 233 260 261 296 236 193 178 174 173
249 256 243 228 220 216 188 207 211 182 176 140 93 136 226 214 157 139 192 198 201 187 179 154 259 98 90 126 135 182 179 157 103 39 21 234 282 275 44 46 139 162 174 182 181
241 247 244 234 215 202 200 219 228 203 137 154 194 175 183 192 162 187 177 195 200 184 207 203 117 63 144 109 47 151 158 85 10 178 257 279 273 238 222 202 169 168 187 189 189
236 220 226 229 218 205 216 219 222 219 181 183 208 185 191 172 183 203 200 221 196 169 148 151 125 219 136 207 170 135 174 68 123 149 175 258 253 210 219 177 182 198 196 194 196
221 189 188 189 203 274 223 213 198 194 213 224 220 164 176 171 173 205 200 225 173 145 164 193 140 167 195 139 91 164 194 161 164 216 253 146 257 3 252 179 185 198 200 202 206
176 178 181 183 209 226 323 233 211 165 190 188 198 223 175 179 167 190 189 169 165 159 163 175 198 83 354 32 39 192 205 161 92 79 194 170 259 34 70 164 201 203 206 207 210
186 167 162 203 188 204 198 210 208 187 173 164 166 92 123 210 337 170 179 153 170 176 193 140 144 171 211 187 137 178 195 189 163 190 179 229 253 171 210 211 204 212 215 209 210
210 210 168 186 194 184 169 176 171 198 214 197 194 178 173 162 173 181 161 146 81 138 78 169 192 153 86 101 119 194 188 193 199 222 210 246 228 183 207 207 214 218 211 205 229
175 148 223 294 190 183 164 191 183 179 181 234 235 205 196 192 178 184 147 231 171 95 157 343 109 80 334 89 79 276 235 172 219 187 252 253 257 181 209 218 223 227 221 220 251
211 190 60 297 242 186 202 189 204 199 195 196 213 186 209 221 197 115 151 150 161 156 168 147 129 114 231 112 101 273 222 195 175 188 171 213 238 181 201 211 225 234 233 242 251